Location: Gwatt
(46.7204°N, 7.6223°E)
Time: 19:04:08
(UTC+00:00)

Transit 2A - Pass Details

Date: 29 January 2021
Orbit: 600 x 958 km, 66.7° (Epoch: 26 February)

Event Time Altitude Azimuth Distance (km) Brightness Sun altitude
Rises 04:46:17 0° 275° (W) 3,356 - -22.5°
Reaches altitude 10° 04:50:10 10° 301° (WNW) 2,338 - -21.8°
Maximum altitude 04:52:46 14° 331° (NNW) 2,042 - -21.4°
Exits shadow 04:53:42 13° 343° (NNW) 2,056 8.0 -21.2°
Drops below altitude 10° 04:55:16 10° 1° (N) 2,223 8.4 -20.9°
Sets 04:58:48 0° 28° (NNE) 3,065 9.4 -20.3°
